EN

Hourly Weather Edinburgh

Today, 20 October, Tuesday

Time Temperature Precipitation Wind Pressure Humidity
00:00 +11°C° 1.1 mm 4 mps 747 mmHg 94%
01:00 +10°C° 0.7 mm 3 mps 746 mmHg 94%
02:00 +10°C° 0.7 mm 3 mps 745 mmHg 93%
03:00 +10°C° 0.7 mm 3 mps 744 mmHg 93%
04:00 +10°C° 0.8 mm 3 mps 744 mmHg 93%
05:00 +9°C° 0.8 mm 3 mps 743 mmHg 93%
06:00 +9°C° 0.8 mm 3 mps 743 mmHg 92%
07:00 +10°C° 0.2 mm 3 mps 743 mmHg 92%
08:00 +10°C° 0.2 mm 3 mps 743 mmHg 92%
09:00 +10°C° 0.2 mm 2 mps 743 mmHg 91%
10:00 +12°C° 0.1 mm 2 mps 743 mmHg 89%
11:00 +12°C° 0.1 mm 3 mps 743 mmHg 88%
12:00 +13°C° 0.1 mm 3 mps 743 mmHg 86%
13:00 +13°C° 0.7 mm 3 mps 743 mmHg 88%
14:00 +12°C° 0.7 mm 3 mps 742 mmHg 89%
15:00 +12°C° 0.7 mm 4 mps 742 mmHg 91%
16:00 +12°C° 0.7 mm 3 mps 742 mmHg 91%
17:00 +12°C° 0.7 mm 3 mps 741 mmHg 91%
18:00 +12°C° 0.7 mm 3 mps 741 mmHg 91%
19:00 +12°C° 0.4 mm 3 mps 741 mmHg 91%
20:00 +12°C° 0.4 mm 3 mps 741 mmHg 91%
21:00 +12°C° 0.4 mm 3 mps 742 mmHg 91%
22:00 +11°C° 0.2 mm 3 mps 742 mmHg 92%
23:00 +11°C° 0.2 mm 3 mps 741 mmHg 92%

Tomorrow, 21 October, Wednesday

Time Temperature Precipitation Wind Pressure Humidity
00:00 +11°C° 0.2 mm 3 mps 741 mmHg 92%
01:00 +11°C° 0.1 mm 3 mps 741 mmHg 92%
02:00 +11°C° 0.1 mm 3 mps 741 mmHg 92%
03:00 +11°C° 0.1 mm 3 mps 741 mmHg 92%
04:00 +11°C° 0.1 mm 3 mps 741 mmHg 92%
05:00 +11°C° 0.1 mm 3 mps 740 mmHg 93%
06:00 +10°C° 0.1 mm 2 mps 740 mmHg 93%
07:00 +12°C° 0 mm 2 mps 740 mmHg 93%
08:00 +12°C° 0 mm 2 mps 740 mmHg 92%
09:00 +12°C° 0 mm 2 mps 740 mmHg 91%
10:00 +13°C° 0.2 mm 2 mps 741 mmHg 91%
11:00 +13°C° 0.2 mm 1 mps 741 mmHg 91%
12:00 +13°C° 0.2 mm 1 mps 741 mmHg 90%
13:00 +13°C° 0.3 mm 1 mps 742 mmHg 92%
14:00 +13°C° 0.3 mm 1 mps 742 mmHg 93%
15:00 +12°C° 0.3 mm 1 mps 742 mmHg 95%
16:00 +12°C° 0 mm 2 mps 743 mmHg 95%
17:00 +12°C° 0 mm 2 mps 744 mmHg 95%
18:00 +10°C° 0 mm 2 mps 744 mmHg 95%
19:00 +10°C° 0.1 mm 2 mps 745 mmHg 94%
20:00 +9°C° 0.1 mm 2 mps 746 mmHg 93%
21:00 +9°C° 0.1 mm 2 mps 747 mmHg 92%
22:00 +8°C° 0.1 mm 2 mps 748 mmHg 91%
23:00 +8°C° 0.1 mm 2 mps 748 mmHg 89%

Day after tomorrow, 22 October, Thursday

Time Temperature Precipitation Wind Pressure Humidity
00:00 +9°C° 0.1 mm 1 mps 749 mmHg 88%
01:00 +9°C° 0 mm 1 mps 749 mmHg 87%
02:00 +9°C° 0 mm 1 mps 750 mmHg 87%
03:00 +8°C° 0 mm 1 mps 750 mmHg 86%
04:00 +8°C° 0 mm 1 mps 751 mmHg 86%
05:00 +7°C° 0 mm 1 mps 751 mmHg 86%
06:00 +6°C° 0 mm 1 mps 751 mmHg 86%
07:00 +7°C° 0 mm 1 mps 752 mmHg 84%
08:00 +7°C° 0 mm 1 mps 752 mmHg 83%
09:00 +7°C° 0 mm 1 mps 753 mmHg 81%
10:00 +8°C° 0 mm 1 mps 753 mmHg 77%
11:00 +9°C° 0 mm 1 mps 753 mmHg 72%
12:00 +10°C° 0 mm 1 mps 753 mmHg 67%
13:00 +10°C° 0 mm 1 mps 753 mmHg 67%
14:00 +10°C° 0 mm 1 mps 753 mmHg 68%
15:00 +9°C° 0 mm 2 mps 753 mmHg 68%
16:00 +8°C° 0 mm 1 mps 753 mmHg 72%
17:00 +7°C° 0 mm 1 mps 753 mmHg 76%
18:00 +6°C° 0 mm 1 mps 753 mmHg 81%
19:00 +6°C° 0 mm 1 mps 753 mmHg 81%
20:00 +5°C° 0 mm 1 mps 753 mmHg 81%
21:00 +5°C° 0 mm 1 mps 753 mmHg 82%
22:00 +5°C° 0 mm 1 mps 752 mmHg 83%
23:00 +5°C° 0 mm 1 mps 752 mmHg 85%

23 October, Friday

Time Temperature Precipitation Wind Pressure Humidity
00:00 +5°C° 0 mm 1 mps 752 mmHg 86%
01:00 +5°C° 0 mm 1 mps 751 mmHg 87%
02:00 +5°C° 0 mm 1 mps 751 mmHg 88%
03:00 +5°C° 0 mm 1 mps 750 mmHg 88%
04:00 +5°C° 0 mm 1 mps 750 mmHg 88%
05:00 +5°C° 0 mm 2 mps 749 mmHg 87%
06:00 +5°C° 0 mm 2 mps 749 mmHg 86%
07:00 +6°C° 0.3 mm 2 mps 748 mmHg 88%
08:00 +6°C° 0.3 mm 2 mps 748 mmHg 89%
09:00 +6°C° 0.3 mm 2 mps 748 mmHg 91%
10:00 +7°C° 0.3 mm 2 mps 748 mmHg 90%
11:00 +7°C° 0.3 mm 3 mps 748 mmHg 90%
12:00 +8°C° 0.3 mm 3 mps 748 mmHg 89%
13:00 +8°C° 0.2 mm 3 mps 748 mmHg 88%
14:00 +7°C° 0.2 mm 4 mps 748 mmHg 86%
15:00 +8°C° 0.2 mm 4 mps 748 mmHg 84%
16:00 +8°C° 0.1 mm 3 mps 749 mmHg 86%
17:00 +7°C° 0.1 mm 3 mps 749 mmHg 87%
18:00 +5°C° 0.1 mm 3 mps 749 mmHg 88%
19:00 +5°C° 0.1 mm 3 mps 750 mmHg 89%
20:00 +6°C° 0.1 mm 2 mps 750 mmHg 89%
21:00 +5°C° 0.1 mm 2 mps 751 mmHg 90%
22:00 +4°C° 0 mm 3 mps 751 mmHg 90%
23:00 +4°C° 0 mm 3 mps 751 mmHg 89%

24 October, Saturday

Time Temperature Precipitation Wind Pressure Humidity
00:00 +4°C° 0 mm 3 mps 751 mmHg 89%
01:00 +4°C° 0 mm 3 mps 750 mmHg 89%
02:00 +4°C° 0 mm 3 mps 750 mmHg 88%
03:00 +4°C° 0 mm 3 mps 750 mmHg 87%
04:00 +5°C° 0.1 mm 4 mps 749 mmHg 88%
05:00 +6°C° 0.1 mm 4 mps 748 mmHg 88%
06:00 +6°C° 0.1 mm 5 mps 748 mmHg 88%
07:00 +7°C° 0.7 mm 5 mps 747 mmHg 89%
08:00 +8°C° 0.7 mm 6 mps 746 mmHg 89%
09:00 +9°C° 0.7 mm 7 mps 745 mmHg 90%
10:00 +10°C° 0.3 mm 8 mps 744 mmHg 89%
11:00 +10°C° 0.3 mm 9 mps 743 mmHg 88%
12:00 +11°C° 0.3 mm 10 mps 743 mmHg 87%
13:00 +11°C° 1.6 mm 9 mps 742 mmHg 87%
14:00 +11°C° 1.6 mm 8 mps 742 mmHg 88%
15:00 +11°C° 1.6 mm 8 mps 742 mmHg 88%
16:00 +10°C° 0.1 mm 7 mps 742 mmHg 88%
17:00 +10°C° 0.1 mm 6 mps 742 mmHg 87%
18:00 +9°C° 0.1 mm 5 mps 742 mmHg 87%
19:00 +10°C° 0.1 mm 4 mps 742 mmHg 87%
20:00 +8°C° 0.1 mm 4 mps 742 mmHg 88%
21:00 +8°C° 0.1 mm 4 mps 742 mmHg 89%
22:00 +8°C° 0.1 mm 4 mps 742 mmHg 88%
23:00 +8°C° 0.1 mm 4 mps 742 mmHg 88%

25 October, Sunday

Time Temperature Precipitation Wind Pressure Humidity
00:00 +8°C° 0.1 mm 5 mps 742 mmHg 88%
01:00 +7°C° 0 mm 4 mps 742 mmHg 88%
02:00 +7°C° 0 mm 4 mps 742 mmHg 89%
03:00 +6°C° 0 mm 4 mps 742 mmHg 89%
04:00 +6°C° 0 mm 4 mps 742 mmHg 89%
05:00 +6°C° 0 mm 4 mps 742 mmHg 88%
06:00 +6°C° 0 mm 4 mps 742 mmHg 88%
07:00 +6°C° 0 mm 4 mps 742 mmHg 87%
08:00 +7°C° 0 mm 5 mps 743 mmHg 86%
09:00 +7°C° 0 mm 5 mps 743 mmHg 85%
10:00 +8°C° 0.1 mm 6 mps 743 mmHg 82%
11:00 +8°C° 0.1 mm 7 mps 743 mmHg 80%
12:00 +9°C° 0.1 mm 7 mps 743 mmHg 77%
13:00 +9°C° 0.1 mm 7 mps 743 mmHg 77%
14:00 +9°C° 0.1 mm 6 mps 743 mmHg 77%
15:00 +9°C° 0.1 mm 6 mps 743 mmHg 77%
16:00 +8°C° 0.2 mm 5 mps 744 mmHg 81%
17:00 +7°C° 0.2 mm 5 mps 744 mmHg 84%
18:00 +7°C° 0.2 mm 4 mps 744 mmHg 87%
19:00 +6°C° 0 mm 4 mps 745 mmHg 88%
20:00 +6°C° 0 mm 4 mps 745 mmHg 89%
21:00 +6°C° 0 mm 4 mps 745 mmHg 90%
22:00 +7°C° 0 mm 3 mps 745 mmHg 91%
23:00 +5°C° 0 mm 3 mps 745 mmHg 91%
Show more